OpenBCM V1.08-5-g2f4a (Linux)

Packet Radio Mailbox

IZ3LSV

[San Dona' di P. JN]

 Login: GUEST





  
I0OJJ  > KEPS     23.12.25 01:25l 320 Lines 15311 Bytes #134 (0) @ AMSAT
BID : ORB25357.1
Read: GUEST
Subj: 2Line Orbital Elements 25357.AMSAT
Path: IZ3LSV<IK6IHL<IK7NXU<HB9ON<DK0WUE<PD0LPM<PI8ZTM<CX2SA<EA2RCF<I0OJJ
Sent: 251223/0021z @:I0OJJ.ITA.EU [Rome] obcm1.08-11-2-gbfe9
From: I0OJJ @ I0OJJ.ITA.EU (Gustavo)
To:   KEPS @ AMSAT
X-Info: This message was generated automatically


QST de W1STR

AMSAT Orbital Elements for Amateur Satellites in TLE Format
From Orbital Analysis Office
New England Sci-Tech STEM Education Center
Natick MA December 23, 2025
To all radio amateurs


These element sets describe the orbits of various satellites 
in use by the amateur radio community. For details see:
www.amsat.org/keplerian-elements-formats/

A daily update of element sets is available at:
www.amsat.org/tle/daily-bulletin.txt
or without bulletin text:
www.amsat.org/tle/dailytle.txt


AO-07
1 07530U 74089B   25356.56568899 -.00000046  00000-0  46499-5 0  9998
2 07530 101.9964   2.9365 0012396 108.1325  22.6666 12.53694427338389
UO-11
1 14781U 84021B   25356.46274083  .00001524  00000-0  16298-3 0  9992
2 14781  97.7825 319.3408 0008978  55.0272 305.1787 14.90172576230808
AO-27
1 22825U 93061C   25356.71847520  .00000121  00000-0  63080-4 0  9998
2 22825  98.7131  59.0089 0007337 256.0730 103.9637 14.30880263681766
FO-29
1 24278U 96046B   25356.60665102 -.00000012  00000-0  23543-4 0  9990
2 24278  98.5456 224.4173 0349603 194.3491 164.7519 13.53263035449282
GO-32
1 25397U 98043D   25356.54113562  .00000066  00000-0  48733-4 0  9999
2 25397  98.9931 339.9798 0001755  41.7651 318.3660 14.24379637426181
ISS
1 25544U 98067A   25356.53682406  .00011576  00000-0  21250-3 0  9998
2 25544  51.6324  93.9618 0003154 285.9755  74.0886 15.49728746544372
NO-44
1 26931U 01043C   25356.37552759  .00000182  00000-0  99115-4 0  9993
2 26931  67.0515 341.5594 0007402 269.4365  90.5889 14.31860065265136
SO-50
1 27607U 02058C   25356.18258426  .00001806  00000-0  23309-3 0  9999
2 27607  64.5532 316.4124 0072645 294.8047  64.5514 14.82428735238213
CO-55
1 27844U 03031E   25356.49601274  .00000331  00000-0  16246-3 0  9995
2 27844  98.6762   2.2731 0009258 345.0854  15.0051 14.24187295166528
CO-57
1 27848U 03031J   25356.46727093  .00000283  00000-0  14376-3 0  9992
2 27848  98.6792   2.0991 0009506   3.5414 356.5830 14.23494166166238
RS-22
1 27939U 03042A   25356.84105249  .00001344  00000-0  21746-3 0  9998
2 27939  98.3361 171.3096 0012406 105.8162   5.1431 14.72996465189583
CO-58
1 28895U 05043F   25356.36661265  .00001621  00000-0  26662-3 0  9995
2 28895  98.2730 143.6077 0015073  49.5531 310.6987 14.71933957 75739
CO-65
1 32785U 08021C   25351.68477250  .00005656  00000-0  38073-3 0  9997
2 32785  97.8081 324.8433 0007829 290.5969  69.4418 15.07103756957832
CO-66
1 32791U 08021J   25356.48080583  .00018754  00000-0  74085-3 0  9992
2 32791  97.7452 341.9630 0002520 165.0976 195.0336 15.25559484960287
RS-30
1 32953U 08025A   25356.85087193 -.00000023  00000-0 -23517-3 0  9997
2 32953  82.5035 105.1352 0018652 338.5820  21.4477 12.43171883797786
SRMSAT
1 37841U 11058D   25356.43350551  .00000410  00000-0  78871-4 0  9995
2 37841  19.9728  49.2828 0011976  59.7040  59.7163 14.11514562732815
ZACUBE-1
1 39417U 13066B   25351.39749824  .00003280  00000-0  27002-3 0  9999
2 39417  97.8056 307.9496 0042001 132.1904 228.2897 14.99124350653477
Delfi-N3xt
1 39428U 13066N   25356.73479066  .00008713  00000-0  81258-3 0  9991
2 39428  97.8357 272.5762 0081046  72.9716 288.0363 14.91961068648282
GOMX-1
1 39430U 13066Q   25356.84903095  .00002790  00000-0  43069-3 0  9997
2 39430  97.6581 203.3432 0129138 283.9283  74.7589 14.68632426644021
LO-74
1 39440U 13066AA  25351.56788106  .00003439  00000-0  33426-3 0  9993
2 39440  97.8708 295.2332 0058016 269.4523  90.0047 14.92015584649893
AO-73
1 39444U 13066AE  25356.82049505  .00008397  00000-0  56776-3 0  9995
2 39444  97.8082 320.2238 0041124  83.1503 277.4400 15.06109785653080
DTUSAT-2
1 40030U 14033W   25351.70002679  .00007073  00000-0  41774-3 0  9998
2 40030  98.0754 333.4459 0009697 125.2587 234.9550 15.11812878625232
EO-80
1 40032U 14033Y   25356.47549240  .00009173  00000-0  53803-3 0  9998
2 40032  98.0650 337.8706 0009804  63.0603 297.1627 15.11969600625939
LILACSAT-2
1 40908U 15049K   25356.84072225  .00016244  00000-0  34568-3 0  9997
2 40908  97.4896  22.5347 0008296 160.3815 199.7754 15.45011759568467
IO-86
1 40931U 15052B   25151.18580175  .00001241  00000-0  78118-4 0  9996
2 40931   6.0006  24.0987 0012733 338.8432  21.1169 14.78805930523159
Horyu-4
1 41340U 16012D   25356.07851032  .00050102  00000-0  81392-3 0  9993
2 41340  30.9931 245.8226 0006800 324.9926  35.0276 15.51401903543001
Lapan A3
1 41603U 16040E   25356.88689348  .00004349  00000-0  14470-3 0  9999
2 41603  97.1429 354.0740 0008765 292.1918  67.8393 15.31629594527813
CAS-2T
1 41847U 16066G   25356.80774308  .00001005  00000-0  15209-3 0  9997
2 41847  98.4025  69.4502 0342635 304.5779  52.3523 14.44153650479337
TechnoSat
1 42829U 17042E   25356.37899111  .00003750  00000-0  27855-3 0  9994
2 42829  97.4057 156.1711 0017558 343.1836  16.8806 15.03484288460120
AO-91
1 43017U 17073E   25356.59175308  .00011883  00000-0  55904-3 0  9999
2 43017  97.4933 222.5652 0159506 216.3849 142.6455 15.09054547438726
S-Net D
1 43186U 18014G   25356.73120633  .00006482  00000-0  35577-3 0  9992
2 43186  97.5490 257.7395 0006740 271.5134  88.5325 15.14466640432036
S-Net B
1 43187U 18014H   25356.80549655  .00006775  00000-0  37189-3 0  9996
2 43187  97.5500 257.7938 0007457 265.6094  94.4285 15.14442870432048
S-Net A
1 43188U 18014J   25356.73087242  .00006498  00000-0  35659-3 0  9990
2 43188  97.5504 257.8979 0007258 266.4538  93.5864 15.14473250432038
S-Net C
1 43189U 18014K   25356.47812906  .00006858  00000-0  37646-3 0  9993
2 43189  97.5518 257.6945 0008710 258.2687 101.7568 15.14432948430549
Ten-Koh
1 43677U 18084G   25356.50562213  .00003014  00000-0  23560-3 0  9990
2 43677  98.0750 176.5221 0008739 358.3820   1.7373 15.01875475389631
PO-101
1 43678U 18084H   25356.79528589  .00003497  00000-0  29004-3 0  9994
2 43678  98.1031 180.6638 0007604  21.8358 338.3187 14.99488980389775
QO-100
1 43700U 18090A   25356.33957684  .00000166  00000-0  00000-0 0  9991
2 43700   0.0205  63.8461 0001056 231.6466 303.7069  1.00272998 25903
MinXSS-2
1 43758U 18099A   25356.14395137  .00029940  00000-0  88158-3 0  9995
2 43758  97.4785  63.6387 0009542 177.2356 182.8942 15.34963955386868
AO-95
1 43770U 18099N   25356.12878537  .00012470  00000-0  54698-3 0  9999
2 43770  97.4655  52.3419 0008275 247.7738 112.2620 15.22082158386244
SNUSat 2
1 43782U 18099AA  25356.41237361  .00010198  00000-0  49761-3 0  9998
2 43782  97.4337  47.6534 0010800 186.5305 173.5790 15.18434680386172
SnugLite
1 43784U 18099AC  25356.11351171  .00012558  00000-0  54479-3 0  9997
2 43784  97.4149  47.4403 0003102 166.8900 193.2418 15.22478618386335
ITASat 1
1 43786U 18099AE  25356.06980517  .00007588  00000-0  39546-3 0  9990
2 43786  97.4309  46.1867 0011924 247.2342 112.7631 15.16200828386040
EAGLET 1
1 43790U 18099AJ  25356.10756086  .00004765  00000-0  28722-3 0  9990
2 43790  97.4505  45.4040 0010308 233.3269 126.7014 15.11195476385571
ESEO
1 43792U 18099AL  25356.39852062  .00002598  00000-0  19444-3 0  9997
2 43792  97.4226  36.1871 0011655 212.2017 147.8499 15.03523852385233
JO-97
1 43803U 18099AX  25356.84172321  .00017181  00000-0  64711-3 0  9994
2 43803  97.4404  54.6264 0006697 165.1093 195.0345 15.27141759386655
Suomi 100
1 43804U 18099AY  25356.11405625  .00013903  00000-0  58358-3 0  9999
2 43804  97.4468  52.5022 0011000 178.0151 182.1131 15.23525444386414
ISAT
1 43879U 18111D   25356.72925007  .00039557  00000-0  91034-3 0  9995
2 43879  97.5918 276.8326 0004433 195.7450 164.3660 15.42522366383782
UWE-4
1 43880U 18111E   25355.76204127  .00020537  00000-0  60968-3 0  9993
2 43880  97.5869 272.5389 0007362 235.2690 124.7860 15.34803522383465
Sparrow
1 43881U 18111F   25355.79201094  .00039816  00000-0  84903-3 0  9992
2 43881  97.6105 279.6671 0001806 265.2776  94.8265 15.44799367383768
Prox-1
1 44339U 19036A   25355.91181998  .00013999  00000-0  15550-2 0  9997
2 44339  23.9944 214.0126 0006427 144.3318 215.7610 14.85403615347031
Taurus 1
1 44530U 19059C   25356.85055461  .00012237  00000-0  20778-2 0  9996
2 44530  98.6230 146.2623 0009161 143.6942 216.4885 14.69303435332725
TO-108
1 44881U 19093C   25356.86747361  .00000263  00000-0  36151-4 0  9991
2 44881  97.7752  68.2725 0012643 311.4234  48.5895 14.86121499325226
FloripaSat 1
1 44885U 19093G   25356.84114091  .00006524  00000-0  51004-3 0  9990
2 44885  97.8036  85.0830 0009517 301.2381  58.7910 15.01387660326163
RS-44
1 44909U 19096E   25356.00497041  .00000017  00000-0  24537-4 0  9990
2 44909  82.5216  97.4525 0217389 198.3865 160.9291 12.79746097279686
SALSAT
1 46495U 20068K   25356.49605498  .00009108  00000-0  35170-3 0  9997
2 46495  97.8789 344.2953 0009758 191.3835 168.7183 15.26478815288376
CSS (TIANHE-1)
1 48274U 21035A   25356.57750809  .00018108  00000-0  22463-3 0  9996
2 48274  41.4686 316.9649 0007858 117.6887 242.4750 15.59570921265562
CUTE
1 49263U 21088D   25356.53198081  .00034638  00000-0  44278-3 0  9991
2 49263  97.4341  79.8225 0004651 225.2901 134.7977 15.59157417234826
TeikyoSat 4
1 49396U 21102B   25356.81628440  .00001764  00000-0  11623-3 0  9995
2 49396  97.3884  28.0368 0012317 172.6458 187.4954 15.08686579226122
Z-Sat
1 49399U 21102E   25356.87277216  .00003993  00000-0  20738-3 0  9998
2 49399  97.3562  32.5110 0018247 137.7199 222.5444 15.16521606226702
KOSEN 1
1 49402U 21102H   25356.09436622  .00007944  00000-0  33206-3 0  9999
2 49402  97.3451  36.7898 0016224 110.8019 249.4958 15.23752282227027
HO-113
1 50466U 21131B   25356.85642656  .00000512  00000-0  17252-3 0  9990
2 50466  98.5054  85.2273 0003040 267.3642  92.7199 14.41124352209711
